,,,PA_Meas_PMT16A,,PR_Meas_QMR101_102,,RH_Meas_QMH101,,SR_Meas_QMS101,,TA_Meas_QMH101,,GenWind,,GenWind,
date,time,status,PA,status,PR,status,RH,status,SR,status,TA,status,DirAvg,status,SpdAvg,
2009-02-07, 00:00:04,VALID,1003.71,VALID,0,VALID,94.5142,VALID,0,VALID,22.7888,VALID,347,VALID,0.514844,
2009-02-07, 00:01:04,VALID,1003.69,VALID,0,VALID,94.5142,VALID,0,VALID,22.7906,VALID,346,VALID,0.455469,
2009-02-07, 00:02:04,VALID,1003.71,VALID,0,VALID,94.5218,VALID,0,VALID,22.7694,VALID,346,VALID,0.378516,
2009-02-07, 00:03:04,VALID,1003.71,VALID,0,VALID,94.5295,VALID,0,VALID,22.7888,VALID,346,VALID,0.357812,
2009-02-07, 00:04:04,VALID,1003.68,VALID,0,VALID,94.56,VALID,0,VALID,22.7888,VALID,346,VALID,0.298828,
2009-02-07, 00:05:04,VALID,1003.67,VALID,0,VALID,94.56,VALID,0,VALID,22.7888,VALID,345,VALID,0.361328,
2009-02-07, 00:06:04,VALID,1003.7,VALID,0,VALID,94.5142,VALID,0,VALID,22.7906,VALID,341,VALID,0.480078,
2009-02-07, 00:07:04,VALID,1003.68,VALID,0,VALID,94.5142,VALID,0,VALID,22.7694,VALID,345,VALID,0.360938,
2009-02-07, 00:08:04,VALID,1003.69,VALID,0,VALID,94.5066,VALID,0,VALID,22.7694,VALID,345,VALID,0.316016,
2009-02-07, 00:09:04,VALID,1003.69,VALID,0,VALID,94.5142,VALID,0,VALID,22.7694,VALID,345,VALID,0,
2009-02-07, 00:10:04,VALID,1003.68,VALID,0,VALID,94.5142,VALID,0,VALID,22.7906,VALID,345,VALID,0.175781,
2009-02-07, 00:11:04,VALID,1003.68,VALID,0,VALID,94.5066,VALID,0,VALID,22.7694,VALID,345,VALID,0.335156,
2009-02-07, 00:12:04,VALID,1003.67,VALID,0,VALID,94.5066,VALID,0,VALID,22.7694,VALID,345,VALID,0.395312,
2009-02-07, 00:13:04,VALID,1003.66,VALID,0,VALID,94.5066,VALID,0,VALID,22.7694,VALID,345,VALID,0.389844,
2009-02-07, 00:14:04,VALID,1003.65,VALID,0,VALID,94.5142,VALID,0,VALID,22.7888,VALID,345,VALID,0.280859,
2009-02-07, 00:15:04,VALID,1003.67,VALID,0,VALID,94.5371,VALID,0,VALID,22.7888,VALID,345,VALID,0,
2009-02-07, 00:16:04,VALID,1003.65,VALID,0,VALID,94.5676,VALID,0,VALID,22.7888,VALID,345,VALID,0,
2009-02-07, 00:17:04,VALID,1003.66,VALID,0,VALID,94.5447,VALID,0,VALID,22.7888,VALID,345,VALID,0,
2009-02-07, 00:18:04,VALID,1003.63,VALID,0,VALID,94.5752,VALID,0,VALID,22.81,VALID,345,VALID,0,
2009-02-07, 00:19:04,VALID,1003.63,VALID,0,VALID,94.5523,VALID,0,VALID,22.7888,VALID,345,VALID,0,
2009-02-07, 00:20:04,VALID,1003.6,VALID,0,VALID,94.56,VALID,0,VALID,22.81,VALID,345,VALID,0,
2009-02-07, 00:21:04,VALID,1003.64,VALID,0,VALID,94.5447,VALID,0,VALID,22.7694,VALID,345,VALID,0,
2009-02-07, 00:22:04,VALID,1003.63,VALID,0,VALID,94.5371,VALID,0,VALID,22.7499,VALID,345,VALID,0,
2009-02-07, 00:23:04,VALID,1003.62,VALID,0,VALID,94.5371,VALID,0,VALID,22.7499,VALID,345,VALID,0.155078,
2009-02-07, 00:24:04,VALID,1003.59,VALID,0,VALID,94.5523,VALID,0,VALID,22.7888,VALID,345,VALID,0.255859,
2009-02-07, 00:25:04,VALID,1003.6,VALID,0,VALID,94.56,VALID,0,VALID,22.7482,VALID,345,VALID,0.178516,
2009-02-07, 00:26:04,VALID,1003.59,VALID,0,VALID,94.56,VALID,0,VALID,22.7888,VALID,345,VALID,0,
2009-02-07, 00:27:04,VALID,1003.59,VALID,0,VALID,94.5676,VALID,0,VALID,22.7871,VALID,345,VALID,0,
2009-02-07, 00:28:04,VALID,1003.55,VALID,0,VALID,94.5676,VALID,0,VALID,22.8083,VALID,345,VALID,0,
2009-02-07, 00:29:04,VALID,1003.52,VALID,0,VALID,94.5829,VALID,0,VALID,22.8083,VALID,345,VALID,0,
2009-02-07, 00:30:04,VALID,1003.53,VALID,0,VALID,94.6057,VALID,0,VALID,22.8083,VALID,345,VALID,0,
2009-02-07, 00:31:04,VALID,1003.51,VALID,0,VALID,94.5905,VALID,0,VALID,22.8083,VALID,345,VALID,0,
2009-02-07, 00:32:04,VALID,1003.48,VALID,0,VALID,94.5676,VALID,0,VALID,22.7677,VALID,345,VALID,0,
2009-02-07, 00:33:04,VALID,1003.49,VALID,0,VALID,94.5523,VALID,0,VALID,22.7694,VALID,345,VALID,0,
2009-02-07, 00:34:04,VALID,1003.46,VALID,0,VALID,94.5752,VALID,0,VALID,22.7694,VALID,345,VALID,0,
2009-02-07, 00:35:04,VALID,1003.47,VALID,0,VALID,94.621,VALID,0,VALID,22.7888,VALID,345,VALID,0,
2009-02-07, 00:36:04,VALID,1003.44,VALID,0,VALID,94.6134,VALID,0,VALID,22.7888,VALID,345,VALID,0.247266,
2009-02-07, 00:37:04,VALID,1003.44,VALID,0,VALID,94.6591,VALID,0,VALID,22.7888,VALID,345,VALID,0.0648438,
2009-02-07, 00:38:04,VALID,1003.4,VALID,0,VALID,94.6591,VALID,0,VALID,22.7694,VALID,345,VALID,0,
2009-02-07, 00:39:04,VALID,1003.39,VALID,0,VALID,94.6973,VALID,0,VALID,22.81,VALID,345,VALID,0,
2009-02-07, 00:40:04,VALID,1003.35,VALID,0,VALID,94.6973,VALID,0,VALID,22.8295,VALID,345,VALID,0,
2009-02-07, 00:41:04,VALID,1003.31,VALID,0,VALID,94.7049,VALID,0,VALID,22.8083,VALID,345,VALID,0,
2009-02-07, 00:42:04,VALID,1003.29,VALID,0,VALID,94.7049,VALID,0,VALID,22.8083,VALID,345,VALID,0,
2009-02-07, 00:43:04,VALID,1003.28,VALID,0,VALID,94.6973,VALID,0,VALID,22.7888,VALID,345,VALID,0,
2009-02-07, 00:44:04,VALID,1003.26,VALID,0,VALID,94.682,VALID,0,VALID,22.7888,VALID,345,VALID,0,
2009-02-07, 00:45:04,VALID,1003.22,VALID,0,VALID,94.6973,VALID,0,VALID,22.7694,VALID,345,VALID,0,
2009-02-07, 00:46:04,VALID,1003.22,VALID,0,VALID,94.6744,VALID,0,VALID,22.7499,VALID,345,VALID,0,
2009-02-07, 00:47:04,VALID,1003.21,VALID,0,VALID,94.7049,VALID,0.100563,VALID,22.7499,VALID,345,VALID,0.0203125,
2009-02-07, 00:48:04,VALID,1003.17,VALID,0,VALID,94.7125,VALID,0,VALID,22.7305,VALID,345,VALID,0.0179687,
2009-02-07, 00:49:04,VALID,1003.14,VALID,0,VALID,94.7125,VALID,0,VALID,22.7322,VALID,345,VALID,0,
2009-02-07, 00:50:04,VALID,1003.1,VALID,0,VALID,94.7125,VALID,0,VALID,22.7305,VALID,345,VALID,0.0898438,
2009-02-07, 00:51:04,VALID,1003.07,VALID,0,VALID,94.7507,VALID,0,VALID,22.6898,VALID,345,VALID,0,
2009-02-07, 00:52:04,VALID,1003.07,VALID,0,VALID,94.766,VALID,0,VALID,22.711,VALID,345,VALID,0,
2009-02-07, 00:53:04,VALID,1003.06,VALID,0,VALID,94.7354,VALID,0,VALID,22.6704,VALID,345,VALID,0.337109,
2009-02-07, 00:54:04,VALID,1003.01,VALID,0,VALID,94.7507,VALID,0,VALID,22.6721,VALID,345,VALID,0.180078,
2009-02-07, 00:55:04,VALID,1003.01,VALID,0,VALID,94.7888,VALID,0,VALID,22.6526,VALID,345,VALID,0.0785156,
2009-02-07, 00:56:04,VALID,1002.97,VALID,0,VALID,94.7583,VALID,0,VALID,22.6738,VALID,42,VALID,0.509766,
2009-02-07, 00:57:04,VALID,1002.96,VALID,0,VALID,94.7736,VALID,0,VALID,22.6315,VALID,66,VALID,0.55625,
2009-02-07, 00:58:04,VALID,1002.92,VALID,0,VALID,94.7736,VALID,0,VALID,22.6526,VALID,70,VALID,0.597266,
2009-02-07, 00:59:04,VALID,1002.89,VALID,0,VALID,94.8194,VALID,0,VALID,22.6332,VALID,80,VALID,0.681641,
2009-02-07, 01:00:04,VALID,1002.89,VALID,0,VALID,94.8117,VALID,0,VALID,22.6332,VALID,83,VALID,0.646875,
2009-02-07, 01:01:04,VALID,1002.85,VALID,0,VALID,94.8422,VALID,0,VALID,22.612,VALID,83,VALID,0.351953,
2009-02-07, 01:02:04,VALID,1002.85,VALID,0,VALID,94.8499,VALID,0,VALID,22.6526,VALID,83,VALID,0.470313,
2009-02-07, 01:03:04,VALID,1002.86,VALID,0,VALID,94.8575,VALID,0,VALID,22.6526,VALID,87,VALID,0.150391,
2009-02-07, 01:04:04,VALID,1002.84,VALID,0,VALID,94.8804,VALID,0.100563,VALID,22.6721,VALID,87,VALID,0.000390625,
2009-02-07, 01:05:04,VALID,1002.86,VALID,0,VALID,94.8728,VALID,0,VALID,22.6721,VALID,87,VALID,0.191016,
2009-02-07, 01:06:04,VALID,1002.85,VALID,0,VALID,94.8651,VALID,0,VALID,22.6721,VALID,87,VALID,0.254297,
2009-02-07, 01:07:04,VALID,1002.81,VALID,0,VALID,94.8804,VALID,0,VALID,22.6526,VALID,87,VALID,0.319922,
2009-02-07, 01:08:04,VALID,1002.83,VALID,0,VALID,94.8804,VALID,0,VALID,22.6526,VALID,87,VALID,0.358984,
2009-02-07, 01:09:04,VALID,1002.8,VALID,0,VALID,94.8804,VALID,0,VALID,22.6526,VALID,87,VALID,0.424609,
2009-02-07, 01:10:04,VALID,1002.79,VALID,0,VALID,94.8804,VALID,0,VALID,22.6721,VALID,87,VALID,0,
2009-02-07, 01:11:04,VALID,1002.79,VALID,0,VALID,94.9033,VALID,0,VALID,22.6332,VALID,87,VALID,0.528906,
2009-02-07, 01:12:04,VALID,1002.78,VALID,0,VALID,94.9109,VALID,0,VALID,22.612,VALID,87,VALID,0.360938,
2009-02-07, 01:13:04,VALID,1002.8,VALID,0,VALID,94.9109,VALID,0,VALID,22.6526,VALID,87,VALID,0.390625,
2009-02-07, 01:14:04,VALID,1002.79,VALID,0,VALID,94.9033,VALID,0,VALID,22.6526,VALID,87,VALID,0.491797,
2009-02-07, 01:15:04,VALID,1002.81,VALID,0,VALID,94.9185,VALID,0,VALID,22.6332,VALID,84,VALID,0.350391,
2009-02-07, 01:16:04,VALID,1002.8,VALID,0,VALID,94.9185,VALID,0,VALID,22.6315,VALID,84,VALID,0,
2009-02-07, 01:17:04,VALID,1002.77,VALID,0,VALID,94.9185,VALID,0,VALID,22.6332,VALID,84,VALID,0.267188,
2009-02-07, 01:18:04,VALID,1002.79,VALID,0,VALID,94.9033,VALID,0,VALID,22.6332,VALID,84,VALID,0.122656,
2009-02-07, 01:19:04,VALID,1002.8,VALID,0,VALID,94.9109,VALID,0,VALID,22.6137,VALID,84,VALID,0.0367187,
2009-02-07, 01:20:04,VALID,1002.8,VALID,0,VALID,94.9033,VALID,0,VALID,22.6137,VALID,84,VALID,0.242188,
2009-02-07, 01:21:04,VALID,1002.78,VALID,0,VALID,94.9262,VALID,0,VALID,22.6137,VALID,84,VALID,0.0175781,
2009-02-07, 01:22:04,VALID,1002.82,VALID,0,VALID,94.9338,VALID,0,VALID,22.5925,VALID,84,VALID,0.11875,
2009-02-07, 01:23:04,VALID,1002.79,VALID,0,VALID,94.9567,VALID,0,VALID,22.6349,VALID,84,VALID,0.330469,
2009-02-07, 01:24:04,VALID,1002.77,VALID,0,VALID,94.9643,VALID,0,VALID,22.5925,VALID,84,VALID,0.162109,
2009-02-07, 01:25:04,VALID,1002.78,VALID,0,VALID,94.9872,VALID,0,VALID,22.5925,VALID,84,VALID,0.413281,
2009-02-07, 01:26:04,VALID,1002.76,VALID,0,VALID,94.9414,VALID,0,VALID,22.5925,VALID,84,VALID,0.534375,
2009-02-07, 01:27:04,VALID,1002.77,VALID,0,VALID,94.9643,VALID,0.100563,VALID,22.5942,VALID,84,VALID,0.464063,
2009-02-07, 01:28:04,VALID,1002.75,VALID,0,VALID,94.9338,VALID,0,VALID,22.5731,VALID,84,VALID,0.520312,
2009-02-07, 01:29:04,VALID,1002.72,VALID,0,VALID,94.9414,VALID,0,VALID,22.5942,VALID,84,VALID,0.382422,
2009-02-07, 01:30:04,VALID,1002.71,VALID,0,VALID,94.9414,VALID,0,VALID,22.5731,VALID,84,VALID,0,
2009-02-07, 01:31:04,VALID,1002.7,VALID,0,VALID,94.9643,VALID,0,VALID,22.5925,VALID,84,VALID,0.0128906,
2009-02-07, 01:32:04,VALID,1002.66,VALID,0,VALID,94.9567,VALID,0,VALID,22.5942,VALID,84,VALID,0.210156,
2009-02-07, 01:33:04,VALID,1002.68,VALID,0,VALID,94.9872,VALID,0,VALID,22.5925,VALID,84,VALID,0.442969,
2009-02-07, 01:34:04,VALID,1002.65,VALID,0,VALID,94.9719,VALID,0,VALID,22.5942,VALID,84,VALID,0.36875,
2009-02-07, 01:35:04,VALID,1002.66,VALID,0,VALID,94.9948,VALID,0.100563,VALID,22.6137,VALID,84,VALID,0.446484,
2009-02-07, 01:36:04,VALID,1002.65,VALID,0,VALID,95.0101,VALID,0,VALID,22.612,VALID,84,VALID,0.194141,
2009-02-07, 01:37:04,VALID,1002.62,VALID,0,VALID,95.033,VALID,0.100563,VALID,22.6526,VALID,84,VALID,0.0675781,
2009-02-07, 01:38:04,VALID,1002.62,VALID,0,VALID,95.0177,VALID,0,VALID,22.6526,VALID,84,VALID,0.157031,
2009-02-07, 01:39:04,VALID,1002.6,VALID,0,VALID,95.0177,VALID,0,VALID,22.6315,VALID,84,VALID,0.24375,
2009-02-07, 01:40:04,VALID,1002.58,VALID,0,VALID,95.0101,VALID,0,VALID,22.6137,VALID,84,VALID,0.205469,
2009-02-07, 01:41:04,VALID,1002.55,VALID,0,VALID,95.0253,VALID,0,VALID,22.6526,VALID,84,VALID,0,
2009-02-07, 01:42:04,VALID,1002.56,VALID,0,VALID,95.0101,VALID,0,VALID,22.6315,VALID,84,VALID,0,
2009-02-07, 01:43:04,VALID,1002.54,VALID,0,VALID,95.0024,VALID,0,VALID,22.6526,VALID,84,VALID,0,
2009-02-07, 01:44:04,VALID,1002.52,VALID,0,VALID,94.9948,VALID,0,VALID,22.6526,VALID,84,VALID,0,
2009-02-07, 01:45:04,VALID,1002.48,VALID,0,VALID,94.9948,VALID,0,VALID,22.6526,VALID,84,VALID,0.29375,
2009-02-07, 01:46:04,VALID,1002.43,VALID,0,VALID,94.9948,VALID,0,VALID,22.6721,VALID,84,VALID,0.469531,
2009-02-07, 01:47:04,VALID,1002.4,VALID,0,VALID,95.0024,VALID,0,VALID,22.6315,VALID,84,VALID,0.444922,
2009-02-07, 01:48:04,VALID,1002.43,VALID,0,VALID,94.9948,VALID,0,VALID,22.6526,VALID,63,VALID,0.362891,
2009-02-07, 01:49:04,VALID,1002.37,VALID,0,VALID,95.033,VALID,0,VALID,22.6526,VALID,63,VALID,0.355859,
2009-02-07, 01:50:04,VALID,1002.38,VALID,0,VALID,95.0482,VALID,0,VALID,22.6704,VALID,63,VALID,0.0820313,
2009-02-07, 01:51:04,VALID,1002.35,VALID,0,VALID,95.0406,VALID,0,VALID,22.6915,VALID,63,VALID,0,
2009-02-07, 01:52:04,VALID,1002.35,VALID,0,VALID,95.0177,VALID,0,VALID,22.6721,VALID,63,VALID,0,
2009-02-07, 01:53:04,VALID,1002.34,VALID,0,VALID,95.0406,VALID,0,VALID,22.6509,VALID,63,VALID,0,
2009-02-07, 01:54:04,VALID,1002.31,VALID,0,VALID,95.0558,VALID,0,VALID,22.6721,VALID,63,VALID,0,
2009-02-07, 01:55:04,VALID,1002.27,VALID,0,VALID,95.0787,VALID,0,VALID,22.7499,VALID,63,VALID,0.0800781,
2009-02-07, 01:56:04,VALID,1002.28,VALID,0,VALID,95.0635,VALID,0,VALID,22.711,VALID,63,VALID,0.230859,
2009-02-07, 01:57:04,VALID,1002.24,VALID,0,VALID,95.0711,VALID,0,VALID,22.7499,VALID,63,VALID,0.228516,
2009-02-07, 01:58:04,VALID,1002.26,VALID,0,VALID,95.0635,VALID,0.100563,VALID,22.7287,VALID,63,VALID,0.0683594,
2009-02-07, 01:59:04,VALID,1002.24,VALID,0,VALID,95.0711,VALID,0,VALID,22.7287,VALID,63,VALID,0.0257812,
2009-02-07, 02:00:04,VALID,1002.23,VALID,0,VALID,95.0635,VALID,0,VALID,22.7287,VALID,63,VALID,0,
2009-02-07, 02:01:04,VALID,1002.22,VALID,0,VALID,95.094,VALID,0,VALID,22.7482,VALID,63,VALID,0.0996094,
2009-02-07, 02:02:04,VALID,1002.25,VALID,0,VALID,95.1169,VALID,0,VALID,22.7888,VALID,63,VALID,0.0140625,
2009-02-07, 02:03:04,VALID,1002.21,VALID,0,VALID,95.094,VALID,0,VALID,22.7677,VALID,63,VALID,0,
2009-02-07, 02:04:04,VALID,1002.21,VALID,0,VALID,95.1016,VALID,0,VALID,22.7871,VALID,63,VALID,0,
2009-02-07, 02:05:04,VALID,1002.17,VALID,0,VALID,95.0787,VALID,0.100563,VALID,22.8083,VALID,63,VALID,0.0828125,
2009-02-07, 02:06:04,VALID,1002.18,VALID,0,VALID,95.094,VALID,0,VALID,22.8083,VALID,63,VALID,0.221094,
2009-02-07, 02:07:04,VALID,1002.16,VALID,0,VALID,95.0864,VALID,0.100563,VALID,22.8066,VALID,63,VALID,0.209766,
2009-02-07, 02:08:04,VALID,1002.13,VALID,0,VALID,95.1093,VALID,0,VALID,22.8083,VALID,63,VALID,0.191016,
2009-02-07, 02:09:04,VALID,1002.14,VALID,0,VALID,95.1016,VALID,0,VALID,22.8278,VALID,63,VALID,0.0613281,
2009-02-07, 02:10:04,VALID,1002.13,VALID,0,VALID,95.094,VALID,0.100563,VALID,22.7888,VALID,63,VALID,0,
2009-02-07, 02:11:04,VALID,1002.1,VALID,0,VALID,95.0864,VALID,0,VALID,22.8278,VALID,63,VALID,0.00429688,
2009-02-07, 02:12:04,VALID,1002.09,VALID,0,VALID,95.1016,VALID,0,VALID,22.8278,VALID,63,VALID,0.182812,
2009-02-07, 02:13:04,VALID,1002.05,VALID,0,VALID,95.1093,VALID,0,VALID,22.8472,VALID,63,VALID,0,
2009-02-07, 02:14:04,VALID,1002.05,VALID,0,VALID,95.1321,VALID,0,VALID,22.8455,VALID,63,VALID,0,
2009-02-07, 02:15:04,VALID,1002.06,VALID,0,VALID,95.1321,VALID,0,VALID,22.8667,VALID,63,VALID,0,
2009-02-07, 02:16:04,VALID,1002.05,VALID,0,VALID,95.1321,VALID,0,VALID,22.8861,VALID,63,VALID,0,
2009-02-07, 02:17:04,VALID,1002.07,VALID,0,VALID,95.1398,VALID,0.100563,VALID,22.8861,VALID,63,VALID,0,
2009-02-07, 02:18:04,VALID,1002.06,VALID,0,VALID,95.1321,VALID,0.100563,VALID,22.8649,VALID,63,VALID,0,
2009-02-07, 02:19:04,VALID,1002.05,VALID,0,VALID,95.1169,VALID,0,VALID,22.9056,VALID,63,VALID,0,
2009-02-07, 02:20:04,VALID,1002.03,VALID,0,VALID,95.1398,VALID,0.100563,VALID,22.8844,VALID,63,VALID,0,
2009-02-07, 02:21:04,VALID,1002.03,VALID,0,VALID,95.1245,VALID,0.100563,VALID,22.8844,VALID,63,VALID,0,
2009-02-07, 02:22:04,VALID,1002.03,VALID,0,VALID,95.1398,VALID,0,VALID,22.9056,VALID,63,VALID,0,
2009-02-07, 02:23:04,VALID,1001.99,VALID,0,VALID,95.1398,VALID,0,VALID,22.9251,VALID,63,VALID,0,
2009-02-07, 02:24:04,VALID,1001.99,VALID,0,VALID,95.1321,VALID,0.100563,VALID,22.8844,VALID,63,VALID,0,
2009-02-07, 02:25:04,VALID,1001.95,VALID,0,VALID,95.155,VALID,0.100563,VALID,22.9039,VALID,63,VALID,0,
2009-02-07, 02:26:04,VALID,1001.97,VALID,0,VALID,95.1474,VALID,0.100563,VALID,22.8844,VALID,63,VALID,0,
2009-02-07, 02:27:04,VALID,1001.95,VALID,0,VALID,95.155,VALID,0,VALID,22.9039,VALID,63,VALID,0,
2009-02-07, 02:28:04,VALID,1001.93,VALID,0,VALID,95.1627,VALID,0.100563,VALID,22.9233,VALID,61,VALID,0.196875,
2009-02-07, 02:29:04,VALID,1001.95,VALID,0,VALID,95.1932,VALID,0.100563,VALID,22.9233,VALID,43,VALID,0.367969,
2009-02-07, 02:30:04,VALID,1001.93,VALID,0,VALID,95.1779,VALID,0,VALID,22.964,VALID,42,VALID,0,
2009-02-07, 02:31:04,VALID,1001.93,VALID,0,VALID,95.1703,VALID,0.100563,VALID,22.9233,VALID,42,VALID,0,
2009-02-07, 02:32:04,VALID,1001.92,VALID,0,VALID,95.2161,VALID,0.100563,VALID,22.9428,VALID,17,VALID,0,
2009-02-07, 02:33:04,VALID,1001.92,VALID,0,VALID,95.2008,VALID,0.100563,VALID,22.9622,VALID,17,VALID,0,
2009-02-07, 02:34:04,VALID,1001.95,VALID,0,VALID,95.1703,VALID,0.100563,VALID,22.9622,VALID,17,VALID,0,
2009-02-07, 02:35:04,VALID,1001.9,VALID,0,VALID,95.1855,VALID,0,VALID,22.9817,VALID,17,VALID,0,
2009-02-07, 02:36:04,VALID,1001.92,VALID,0,VALID,95.1855,VALID,0.100563,VALID,22.9622,VALID,17,VALID,0,
2009-02-07, 02:37:04,VALID,1001.87,VALID,0,VALID,95.1855,VALID,0.100563,VALID,22.9622,VALID,12,VALID,0,
2009-02-07, 02:38:04,VALID,1001.86,VALID,0,VALID,95.2161,VALID,0,VALID,23.0029,VALID,11,VALID,0.308984,
2009-02-07, 02:39:04,VALID,1001.87,VALID,0,VALID,95.2008,VALID,0,VALID,23.0224,VALID,11,VALID,0.294531,
2009-02-07, 02:40:04,VALID,1001.83,VALID,0,VALID,95.2084,VALID,0.100563,VALID,23.0206,VALID,11,VALID,0.114063,
2009-02-07, 02:41:04,VALID,1001.87,VALID,0,VALID,95.1932,VALID,0,VALID,23.0224,VALID,11,VALID,0,
2009-02-07, 02:42:04,VALID,1001.86,VALID,0,VALID,95.1779,VALID,0.100563,VALID,23.0418,VALID,11,VALID,0.198437,
2009-02-07, 02:43:04,VALID,1001.84,VALID,0,VALID,95.2161,VALID,0,VALID,23.0206,VALID,11,VALID,0.412109,
2009-02-07, 02:44:04,VALID,1001.86,VALID,0,VALID,95.1855,VALID,0.100563,VALID,23.0206,VALID,11,VALID,0.223828,
2009-02-07, 02:45:04,VALID,1001.86,VALID,0,VALID,95.1855,VALID,0,VALID,23.0206,VALID,11,VALID,0.174609,
2009-02-07, 02:46:04,VALID,1001.87,VALID,0,VALID,95.1703,VALID,0.100563,VALID,23.0206,VALID,11,VALID,0,
2009-02-07, 02:47:04,VALID,1001.89,VALID,0,VALID,95.1932,VALID,0,VALID,23.0224,VALID,11,VALID,0,
2009-02-07, 02:48:04,VALID,1001.88,VALID,0,VALID,95.1627,VALID,0.100563,VALID,23.0012,VALID,11,VALID,0,
2009-02-07, 02:49:04,VALID,1001.88,VALID,0,VALID,95.1855,VALID,0.100563,VALID,23.0012,VALID,11,VALID,0.0726563,
2009-02-07, 02:50:04,VALID,1001.88,VALID,0,VALID,95.2161,VALID,0.100563,VALID,22.98,VALID,11,VALID,0.165625,
2009-02-07, 02:51:04,VALID,1001.87,VALID,0,VALID,95.2008,VALID,0.100563,VALID,23.0012,VALID,11,VALID,0,
2009-02-07, 02:52:04,VALID,1001.87,VALID,0,VALID,95.2008,VALID,0.100563,VALID,23.0012,VALID,11,VALID,0,
2009-02-07, 02:53:04,VALID,1001.84,VALID,0,VALID,95.1855,VALID,0.100563,VALID,23.0012,VALID,11,VALID,0.164063,
2009-02-07, 02:54:04,VALID,1001.9,VALID,0,VALID,95.1855,VALID,0.100563,VALID,22.98,VALID,11,VALID,0.142578,
2009-02-07, 02:55:04,VALID,1001.87,VALID,0,VALID,95.1703,VALID,0.100563,VALID,22.9817,VALID,11,VALID,0.254297,
2009-02-07, 02:56:04,VALID,1001.89,VALID,0,VALID,95.1627,VALID,0.100563,VALID,23.0012,VALID,11,VALID,0,
2009-02-07, 02:57:04,VALID,1001.89,VALID,0,VALID,95.1855,VALID,0.100563,VALID,23.0224,VALID,11,VALID,0,
2009-02-07, 02:58:04,VALID,1001.86,VALID,0,VALID,95.155,VALID,0,VALID,22.9817,VALID,11,VALID,0,
2009-02-07, 02:59:04,VALID,1001.85,VALID,0,VALID,95.1703,VALID,0.100563,VALID,22.9834,VALID,11,VALID,0,
2009-02-07, 03:00:04,VALID,1001.85,VALID,0,VALID,95.1779,VALID,0.100563,VALID,22.9622,VALID,11,VALID,0,
2009-02-07, 03:01:04,VALID,1001.86,VALID,0,VALID,95.1627,VALID,0.100563,VALID,22.9428,VALID,11,VALID,0,
2009-02-07, 03:02:04,VALID,1001.84,VALID,0,VALID,95.1703,VALID,0.100563,VALID,22.9428,VALID,11,VALID,0,
2009-02-07, 03:03:04,VALID,1001.83,VALID,0,VALID,95.1779,VALID,0.100563,VALID,22.9233,VALID,11,VALID,0.483984,
2009-02-07, 03:04:05,VALID,1001.84,VALID,0,VALID,95.1855,VALID,0.100563,VALID,22.9428,VALID,11,VALID,0.458203,
2009-02-07, 03:05:04,VALID,1001.82,VALID,0,VALID,95.1779,VALID,0,VALID,22.9445,VALID,11,VALID,0.386719,
2009-02-07, 03:06:05,VALID,1001.83,VALID,0,VALID,95.1932,VALID,0,VALID,22.9233,VALID,11,VALID,0.534375,
2009-02-07, 03:07:05,VALID,1001.8,VALID,0,VALID,95.2008,VALID,0,VALID,22.9233,VALID,9,VALID,0.273828,
2009-02-07, 03:08:05,VALID,1001.82,VALID,0,VALID,95.2237,VALID,0,VALID,22.9233,VALID,9,VALID,0.374609,
2009-02-07, 03:09:05,VALID,1001.77,VALID,0,VALID,95.2161,VALID,0.100563,VALID,22.9233,VALID,9,VALID,0.413281,
2009-02-07, 03:10:05,VALID,1001.79,VALID,0,VALID,95.2313,VALID,0,VALID,22.9039,VALID,9,VALID,0.439453,
2009-02-07, 03:11:05,VALID,1001.79,VALID,0,VALID,95.2466,VALID,0.100563,VALID,22.964,VALID,9,VALID,0.386719,
2009-02-07, 03:12:05,VALID,1001.79,VALID,0,VALID,95.2466,VALID,0.100563,VALID,22.964,VALID,9,VALID,0.417578,
2009-02-07, 03:13:05,VALID,1001.79,VALID,0,VALID,95.2542,VALID,0.100563,VALID,22.9622,VALID,9,VALID,0.479297,
2009-02-07, 03:14:05,VALID,1001.77,VALID,0,VALID,95.2695,VALID,0.100563,VALID,22.9428,VALID,9,VALID,0.346094,
2009-02-07, 03:15:05,VALID,1001.75,VALID,0,VALID,95.2618,VALID,0,VALID,22.964,VALID,9,VALID,0.283594,
2009-02-07, 03:16:05,VALID,1001.71,VALID,0,VALID,95.2542,VALID,0,VALID,22.9428,VALID,9,VALID,0,
2009-02-07, 03:17:05,VALID,1001.69,VALID,0,VALID,95.2618,VALID,0.100563,VALID,22.9622,VALID,9,VALID,0.356641,
2009-02-07, 03:18:05,VALID,1001.66,VALID,0,VALID,95.2466,VALID,0.100563,VALID,22.9622,VALID,9,VALID,0.148047,
2009-02-07, 03:19:05,VALID,1001.63,VALID,0,VALID,95.2542,VALID,0.100563,VALID,22.9834,VALID,9,VALID,0.236719,
2009-02-07, 03:20:05,VALID,1001.62,VALID,0,VALID,95.2618,VALID,0,VALID,23.0029,VALID,9,VALID,0.215234,
2009-02-07, 03:21:05,VALID,1001.61,VALID,0,VALID,95.2542,VALID,0.100563,VALID,22.9622,VALID,9,VALID,0.00585938,
2009-02-07, 03:22:05,VALID,1001.57,VALID,0,VALID,95.2695,VALID,0.100563,VALID,22.9817,VALID,9,VALID,0,
2009-02-07, 03:23:05,VALID,1001.56,VALID,0,VALID,95.2542,VALID,0.100563,VALID,22.9817,VALID,9,VALID,0,
2009-02-07, 03:24:05,VALID,1001.55,VALID,0,VALID,95.2847,VALID,0.100563,VALID,22.9817,VALID,359,VALID,0.327344,
2009-02-07, 03:25:05,VALID,1001.54,VALID,0,VALID,95.3152,VALID,0,VALID,23.0224,VALID,295,VALID,0.803906,
2009-02-07, 03:26:05,VALID,1001.5,VALID,0,VALID,95.3229,VALID,0,VALID,23.0613,VALID,338,VALID,0.639453,
2009-02-07, 03:27:05,VALID,1001.51,VALID,0,VALID,95.2847,VALID,0,VALID,23.0613,VALID,343,VALID,0.569531,
2009-02-07, 03:28:05,VALID,1001.49,VALID,0,VALID,95.2847,VALID,0,VALID,23.0807,VALID,343,VALID,0.41875,
2009-02-07, 03:29:05,VALID,1001.44,VALID,0,VALID,95.2847,VALID,0,VALID,23.0807,VALID,345,VALID,0.557813,
2009-02-07, 03:30:05,VALID,1001.48,VALID,0,VALID,95.2923,VALID,0,VALID,23.0984,VALID,345,VALID,0.403516,
2009-02-07, 03:31:05,VALID,1001.46,VALID,0,VALID,95.2771,VALID,0,VALID,23.1002,VALID,345,VALID,0.525,
2009-02-07, 03:32:05,VALID,1001.47,VALID,0,VALID,95.2695,VALID,0,VALID,23.1002,VALID,348,VALID,0.607422,
2009-02-07, 03:33:05,VALID,1001.45,VALID,0,VALID,95.2923,VALID,0,VALID,23.1197,VALID,348,VALID,0.439453,
2009-02-07, 03:34:05,VALID,1001.46,VALID,0,VALID,95.2542,VALID,0,VALID,23.0984,VALID,348,VALID,0.405469,
2009-02-07, 03:35:05,VALID,1001.46,VALID,0,VALID,95.2466,VALID,0,VALID,23.1179,VALID,348,VALID,0.458594,
2009-02-07, 03:36:05,VALID,1001.48,VALID,0,VALID,95.2618,VALID,0.100563,VALID,23.1197,VALID,349,VALID,0.689453,
2009-02-07, 03:37:05,VALID,1001.42,VALID,0,VALID,95.2389,VALID,0.100563,VALID,23.1197,VALID,350,VALID,0.475,
2009-02-07, 03:38:05,VALID,1001.43,VALID,0,VALID,95.2313,VALID,0,VALID,23.1197,VALID,350,VALID,0.346875,
2009-02-07, 03:39:05,VALID,1001.42,VALID,0,VALID,95.2389,VALID,0,VALID,23.0984,VALID,350,VALID,0.408984,
2009-02-07, 03:40:05,VALID,1001.38,VALID,0,VALID,95.2389,VALID,0,VALID,23.1197,VALID,350,VALID,0.462891,
2009-02-07, 03:41:05,VALID,1001.38,VALID,0,VALID,95.2313,VALID,0,VALID,23.1197,VALID,348,VALID,0.502344,
2009-02-07, 03:42:05,VALID,1001.38,VALID,0,VALID,95.2695,VALID,0.100563,VALID,23.1179,VALID,347,VALID,0.426953,
2009-02-07, 03:43:05,VALID,1001.36,VALID,0,VALID,95.2313,VALID,0.100563,VALID,23.1391,VALID,348,VALID,0.421484,
2009-02-07, 03:44:05,VALID,1001.35,VALID,0,VALID,95.2466,VALID,0,VALID,23.1586,VALID,348,VALID,0.185547,
2009-02-07, 03:45:05,VALID,1001.34,VALID,0,VALID,95.2389,VALID,0.100563,VALID,23.1586,VALID,348,VALID,0.289453,
2009-02-07, 03:46:05,VALID,1001.38,VALID,0,VALID,95.2161,VALID,0,VALID,23.1586,VALID,348,VALID,0.251172,
2009-02-07, 03:47:05,VALID,1001.39,VALID,0,VALID,95.2084,VALID,0,VALID,23.1374,VALID,348,VALID,0.325781,